Regional Weather Roundup
Issued by NWS

Home | Current Version | Previous Version | Graphics & Text | Print | Product List | Glossary On
Versions: 1 2 3 4 5 6 7 8 9 10 11 12 13 14 15 16 17 18 19 20 21 22 23 24 25 26 27 28 29 30 31 32 33 34 35 36 37 38 39 40 41 42 43 44 45 46 47 48 49 50
000
ASUS45 KCYS 220210
RWRWY

WYOMING REGIONAL WEATHER ROUNDUP
NATIONAL WEATHER SERVICE CHEYENNE WY
800 PM MDT THU AUG 21 2014

NOTE:  "FAIR" INDICATES FEW OR NO CLOUDS BELOW 12,000 FEET
WITH NO SIGNIFICANT WEATHER AND/OR OBSTRUCTIONS TO VISIBILITY.

WYZ001-220300-
YELLOWSTONE NATIONAL PARK

CITY           SKY/WX    TMP DP  RH WIND       PRES   REMARKS
LK YELLOWSTONE   N/A     50  43  77 W7        30.27R
W YELLOWSTONE  NOT AVBL

$$
WYZ002>013-054>058-071-098>099-220300-
NORTHERN WYOMING

CITY           SKY/WX    TMP DP  RH WIND       PRES   REMARKS
JACKSON        PTCLDY    55  48  76 CALM      30.17R
CODY           MOCLDY    55  50  82 N12G17    30.14R
GREYBULL       MOCLDY    69  47  45 NW17      30.03R
WORLAND        CLOUDY    68  52  56 N3        30.04R
SHERIDAN       CLOUDY    62  57  83 NW8       30.08R
BUFFALO        CLOUDY    59  56  89 N10       30.11R
GILLETTE       CLOUDY    65  55  70 N14       30.04R
HULETT         CLOUDY    70  54  56 MISG      30.02
NEWCASTLE      FAIR      77  43  29 CALM      29.98

$$
WYZ014>020-022>026-101>103-220300-
CENTRAL WYOMING

CITY           SKY/WX    TMP DP  RH WIND       PRES   REMARKS
BIG PINEY      MOCLDY    57  46  66 E6        30.22S
PINEDALE       PTCLDY    57  43  58 NW3       30.23S
DUBOIS         CLOUDY    55  39  54 NW5       30.20S
LANDER         CLOUDY    70  41  34 W7        30.08S
RIVERTON       CLOUDY    70  45  40 E6        30.09S
CASPER         CLOUDY    66  45  46 S23G32    30.10R
DOUGLAS        CLOUDY    72  43  35 W15       30.08R

$$
WYZ021-027>030-104>119-220300-
SOUTHERN WYOMING

CITY           SKY/WX    TMP DP  RH WIND       PRES   REMARKS
EVANSTON       PTCLDY    63  42  46 W8        30.21S
KEMMERER       PTCLDY    61  43  51 W5        30.23S
FORT BRIDGER   FAIR      65  44  46 N5        30.24S
ROCK SPRINGS   MOCLDY    58  48  69 SE12      30.22S
DIXON          FAIR      59  49  68 SE6       30.29R
RAWLINS        MOCLDY    55  48  77 SW7       30.24S
SARATOGA       CLOUDY    55  46  71 MISG      30.30S
LARAMIE        CLOUDY    64  40  41 NW6       30.24R
CHEYENNE       MOCLDY    70  44  39 S14G21    30.18R
TORRINGTON     LGT RAIN  76  51  41 SW17G25   30.03R
PINE BLUFFS    FAIR      68  48  49 S8        30.11S

$$


USA.gov is the U.S. government's official web portal to all federal, state and local government web resources and services.